Retour au catalogue

COSMOS 2499 DEB

LostPO
NORAD 56568·DEBRIS·🇷🇺 Russia

Lancé May 23, 2014 depuis Plesetsk Cosmodrome

Loading…

Prochains Passages (prochaines 24 heures)

TLE

PériméSource: Space-Track

Époque: Sep 27, 2024, 08:07 UTC

1 56568U 14028BB  24271.33858758  .00008730  00000-0  17255-1 0  9997
2 56568  82.3441 287.5599 0324774 298.5447  58.3338 13.17147015 81183

Suivez COSMOS 2499 DEB en temps réel avec AllMySat

Download on the App Store